Location: Hurstbourne Priors
(51.2000°N, 1.3667°W)
Time: 20:16:23
(UTC+00:00)

Transit 4A - Pass Details

Date: 23 April 2021
Orbit: 870 x 974 km, 66.8° (Epoch: 09 May)

Event Time Altitude Azimuth Distance (km) Brightness Sun altitude
Rises 04:59:20 0° 317° (NW) 3,552 10.7 0.0°
Reaches altitude 10° 05:02:22 10° 330° (NNW) 2,590 10.2 0.5°
Maximum altitude 05:07:15 25° 25° (NNE) 1,713 10.0 1.2°
Drops below altitude 10° 05:12:03 10° 80° (E) 2,538 12.5 1.9°
Sets 05:14:59 0° 94° (E) 3,466 12.5 2.3°
